Welcome to the New NWS' Forecast!
Most changes are behind the scenes, but click here for differences you might notice.
Latest weather observations around

Bangor, Bangor International Airport (KBGR)

Using English Units (Switch to International System of Units)
Date/ Time (EDT) Wind (mph) Vis. (mi) Weather Sky Cond. Temp (°F) Rel. Humidity Wind Chill (°F) Heat Index (°F) Pressure Precip. (in)
Air Dwpt 6 hour Altimeter (inHg) Sea level (inHg) 1 hr 3 hr 6 hr
Max Min
Aug 16 23:53 Calm 10 Clear CLR 60 55     83%     30.08 30.07      
Aug 16 22:53 Calm 10 Clear CLR 63 54     72%     30.07 30.06      
Aug 16 21:53 NW 6 10 Mostly Clear FEW060 65 55     70%     30.06 30.05      
Aug 16 20:53 NW 7 10 Mostly Clear FEW060 67 54     63%     30.05 30.04      
Aug 16 19:53 WNW 5 10 Mostly Clear FEW060 69 54     59%     30.03 30.02      
Aug 16 18:53 NW 7 10 Mostly Clear FEW060 74 54     50%   73 30.02 30.01      
Aug 16 17:53 N 11 10 Mostly Clear FEW055 77 53     43%   76 30 29.99      
Aug 16 16:53 NNW 9 10 Partly Cloudy SCT055 78 54     43%   78 29.99 29.98      
Aug 16 15:53 NW 10 10 Mostly Cloudy BKN055 79 55     44%   79 29.97 29.96      
Aug 16 14:53 N 13 10 Mostly Clear FEW050 79 55     44%   79 29.97 29.96      
Aug 16 13:53 NW 13 10 Partly Cloudy SCT049 78 57     48%   78 29.96 29.95      
Aug 16 12:53 NNW 14 10 Partly Cloudy SCT044 79 58     49%   79 29.96 29.94      
Aug 16 11:53   10 Partly Cloudy FEW035 SCT048 77 60     56%   77 29.96 29.94      
Aug 16 10:53 NW 11 10 Partly Cloudy FEW027 SCT050 78 63     60%   78 29.95 29.93      
Aug 16 09:53 W 7 10 Partly Cloudy SCT016 SCT100 76 68     76%   77 29.94 29.93      
Aug 16 08:53 WNW 7 7 Mostly Clear FEW030 FEW100 73 67     81%   74 29.94 29.93      
Aug 16 07:53 W 6 6 Fog/Mist FEW030 FEW100 70 67     90%     29.93 29.92     0
Aug 16 06:53 WNW 5 5 Fog/Mist FEW025 FEW100 SCT200 67 66     97%     29.92 29.91      
Aug 16 05:53 W 6 5 Fog/Mist SCT080 SCT100 SCT200 66 64     93%     29.91 29.9      
Aug 16 04:53 3 10 Mostly Cloudy BKN070 BKN090 67 65     93%     29.89 29.88   0  
Aug 16 03:53 WSW 6 8 Mostly Cloudy FEW040 BKN150 66 64     93%     29.89 29.88      
Aug 16 02:53 SW 6 10 Mostly Clear FEW035 66 65     96%     29.88 29.87 0    
Aug 16 02:33 WNW 3 10 Partly Cloudy FEW035 SCT042 66 65     96%     29.88   0    
Aug 16 01:53 WSW 7 3 Thunderstorms and Rain FEW012 BKN041 OVC110 69 64     84%     29.87 29.85 0   1
Aug 16 01:36 S 6 3 Thunderstorms and Rain FEW012 BKN037 OVC090 70 67     90%     29.87   0    
Aug 16 01:32 WSW 5 1.5 Thunderstorms and Rain FEW012 BKN037 OVC090 71 66     84%   72 29.86   0    
Aug 16 00:53 SSE 7 9 Thunderstorms FEW006 BKN046 OVC055 70 69     97%     29.87 29.86 1    
Aug 16 00:18 E 9 3 Thunderstorms and Rain and Fog/Mist SCT008 BKN050 OVC060 70 70     100%     29.87   0    
Aug 16 00:16 ENE 7 2 Thunderstorms and Rain and Fog/Mist SCT008 BKN050 OVC060 70 70     100%     29.87   0    
Aug 16 00:04 N 8 1 Thunderstorms and Heavy Rain and Fog/Mist FEW008 BKN050 OVC060 71 69     93%   72 29.88   0    
Aug 15 23:53 SSE 5 8 Thunderstorms OVC055 71 68     90%   72 29.87 29.86 0    
Aug 15 23:18 NE 7 9 Mostly Cloudy FEW006 BKN050 72 68     87%   73 29.88   0    
Aug 15 22:53 ESE 5 10 Thunderstorms and Rain BKN006 BKN050 70 68     93%     29.87 29.85 0 0  
Aug 15 22:38 S 6 10 Thunderstorms SCT055 70 68     93%     29.86        
Aug 15 21:53 S 5 10 Partly Cloudy SCT055 71 68     90%   72 29.86 29.85      
Aug 15 20:53 SSE 5 10 Mostly Cloudy SCT050 BKN100 72 69     91%   73 29.85 29.84      
Aug 15 19:53 S 5 10 Mostly Cloudy SCT050 SCT100 BKN150 73 69     87%   74 29.82 29.81      
Aug 15 18:53 S 9 10 Mostly Cloudy FEW050 SCT100 BKN150 76 69     79%   77 29.81 29.79      
Aug 15 17:53 S 10 10 Mostly Cloudy FEW050 SCT100 BKN150 79 70     74%   82 29.77 29.76      
Aug 15 16:53 S 9 10 Mostly Cloudy FEW039 SCT050 BKN150 81 70     69%   84 29.79 29.77      
Aug 15 15:53 S 9 10 Mostly Cloudy SCT027 BKN035 BKN100 82 71     69%   86 29.78 29.77      
Aug 15 15:42 S 7 10 Mostly Cloudy BKN025 BKN048 BKN100 82 71     69%   86 29.78        
Aug 15 14:53 S 10 10 Mostly Cloudy SCT025 BKN100 83 71     67%   88 29.78 29.77      
Aug 15 13:53 S 7 10 Partly Cloudy FEW025 SCT100 SCT250 80 70     71%   83 29.79 29.77     0
Aug 15 12:53 S 8 10 Mostly Cloudy FEW025 SCT070 BKN100 79 70     74%   82 29.81 29.8 0    
Aug 15 12:42 S 11 10 Mostly Cloudy FEW025 SCT070 BKN100 79 71     77%   82 29.82   0    
Aug 15 12:28 S 8 10 Thunderstorms and Rain SCT023 SCT065 BKN100 76 70     82%   77 29.82   0    
Aug 15 12:21 S 6 10 Light Rain BKN018 BKN025 75 70     84%   76 29.82   0    
Notice The following observation data may not be complete
Aug 15 12:00   10 Thunderstorms BKN018 BKN025          %              
Aug 15 11:53 NW 6 10 Mostly Cloudy BKN018 BKN026 78 69     74%   79 29.82 29.8      
Aug 15 10:53 6 10 Mostly Cloudy FEW014 BKN026 BKN100 77 69     77%   78 29.83 29.81      
Aug 15 09:53 7 10 Cloudy OVC015 74 69     85%   75 29.83 29.82      
Aug 15 09:34 S 8 10 Mostly Cloudy SCT007 BKN015 74 69     85%   75 29.82        
Aug 15 09:24 SSE 8 10 Mostly Cloudy BKN007 BKN017 74 70     87%   75 29.81        
Aug 15 08:53 S 7 5 Fog/Mist BKN003 OVC014 72 70     93%   73 29.82 29.81      
Aug 15 07:53 S 6 6 Fog/Mist BKN003 OVC016 71 70     96%   72 29.83 29.82     0
Aug 15 07:43 S 6 7 Cloudy BKN003 OVC016 71 70     96%   72 29.83        
Aug 15 06:53 SSW 3 7 Cloudy SCT003 OVC017 71 69     93%   72 29.83 29.81      
Aug 15 06:25 S 5 7 Cloudy SCT002 OVC017 71 69     93%   72 29.82        
Aug 15 05:53 S 3 5 Fog/Mist BKN002 OVC014 70 70     100%     29.81 29.8      
Aug 15 05:38 SSE 6 6 Fog/Mist OVC014 70 69     97%     29.81        
Aug 15 05:17 S 3 6 Fog/Mist SCT003 OVC015 70 70     100%     29.81        
Aug 15 05:03 S 5 4 Fog/Mist BKN003 OVC015 70 70     100%     29.81        
Aug 15 04:53 S 5 2.5 Fog/Mist BKN003 BKN010 OVC015 70 70     100%     29.8 29.79 0 0  
Aug 15 04:29 SSW 5 1.5 Light Drizzle and Fog/Mist OVC002 70 70     100%     29.81   0    
Aug 15 04:13 S 5 2 Fog/Mist OVC002 70 70     100%     29.81        
Aug 15 03:53 SSW 6 5 Fog/Mist OVC003 71 69     93%   72 29.81 29.8      
Aug 15 02:53 SW 3 8 Cloudy OVC003 71 69     93%   72 29.82 29.81      
Aug 15 02:12 S 6 3 Fog/Mist OVC003 71 70     96%   72 29.83        
Aug 15 01:53 S 6 0.75 Fog/Mist OVC003 71 70     96%   72 29.83 29.82      
Aug 15 00:53 SSW 6 0.75 Fog/Mist OVC002 70 69     97%     29.85 29.84      
Aug 14 23:53 S 6 0.75 Fog/Mist OVC002 70 69     97%     29.86 29.85      
Aug 14 23:30 S 6 0.75 Fog/Mist OVC002 70 69     97%     29.86        
Aug 14 22:53 SSE 8 2.5 Fog/Mist VV003 70 68     93%     29.87 29.85      
Aug 14 21:53 S 14 1.5 Fog/Mist VV002 69 68     96%     29.87 29.86      
Aug 14 21:39 S 10 2 Fog/Mist VV002 69 68     96%     29.87        
Aug 14 20:53 S 9 6 Fog/Mist OVC004 71 69     93%   72 29.86 29.85      
Aug 14 20:39 S 8 6 Fog/Mist OVC004 71 69     93%   72 29.86        
Aug 14 19:53 S 10 10 Cloudy OVC007 72 69     91%   73 29.85 29.84      
Aug 14 19:36 S 10 10 Mostly Cloudy BKN009 BKN018 BKN150 73 70     90%   74 29.85        
Aug 14 19:26 S 7 10 Mostly Cloudy FEW012 BKN018 BKN150 74 70     87%   75 29.85        
Aug 14 18:53 S 8 10 Mostly Cloudy FEW012 SCT018 BKN150 75 70     84%   76 29.85 29.84      
Aug 14 18:41 SSE 10 10 Mostly Cloudy SCT012 BKN018 BKN150 75 70     84%   76 29.85        
Aug 14 17:53 S 11 10 Mostly Cloudy SCT020 BKN037 BKN150 77 70     79%   78 29.87 29.85      
Aug 14 17:21 S 10 10 Cloudy SCT019 OVC037 77 70     79%   78 29.86        
Aug 14 16:53 S 10 10 Cloudy BKN019 OVC032 78 70     76%   79 29.86 29.85      
Aug 14 15:53 SSE 9 10 Mostly Cloudy BKN016 BKN038 BKN150 79 71     77%   82 29.87 29.86      
Aug 14 14:53 S 9 10 Cloudy OVC016 78 71     79%   79 29.9 29.88      
Aug 14 13:53 S 9 10 Cloudy SCT016 BKN023 OVC034 78 70     76%   79 29.91 29.89      
Aug 14 12:53 SSE 7 10 Cloudy BKN018 OVC037 78 70     76%   79 29.92 29.91      
Aug 14 12:29 SSE 10 10 Cloudy BKN016 BKN028 OVC035 78 70     76%   79 29.93        
Aug 14 11:53 SE 7 10 Cloudy BKN014 OVC034 77 70     79%   78 29.94 29.92      
Aug 14 10:53 ESE 5 10 Cloudy OVC010 75 69     82%   76 29.94 29.93      
Aug 14 10:43 ESE 3 10 Cloudy OVC010 74 69     85%   75 29.95        
Aug 14 09:53 E 3 10 Cloudy OVC008 72 69     91%   73 29.96 29.95      
Aug 14 08:53 E 3 10 Cloudy OVC007 72 68     87%   73 29.97 29.96      
Aug 14 06:53 E 3 6 Fog/Mist BKN005 BKN200 70 68     93%     29.96 29.95      
Aug 14 05:53 ESE 3 6 Fog/Mist BKN005 OVC012 69 68     96%     29.96 29.96 0    
Aug 14 05:42 ESE 5 6 Fog/Mist BKN005 BKN013 OVC028 69 68     96%     29.96   0    
Aug 14 05:14 ESE 3 4 Light Rain and Fog/Mist OVC003 69 68     96%     29.97   0    
Aug 14 03:53 E 5 1.5 Fog/Mist OVC002 69 68     96%     29.98 29.97      
Aug 14 03:36 ESE 3 1 Fog/Mist OVC002 69 68     96%     29.99        
Aug 14 02:53 SE 3 2 Fog/Mist OVC003 69 68     96%     29.99 29.98      
Aug 14 02:11 Calm 2 Fog/Mist OVC003 69 68     96%     30        
Aug 14 01:53 Calm 5 Fog/Mist OVC003 70 68     93%     30.01 30      
Aug 14 01:13 Calm 6 Fog/Mist BKN004 OVC009 69 68     96%     30.02        
Aug 14 00:53 Calm 10 Cloudy OVC009 70 68     93%     30.02 30.01      
May 15 06:53 S 7 0.25 Fog OVC002 49 49     100% 46   29.81 29.8      
May 15 03:20 S 6 1 Fog/Mist OVC002 49 49     100% 46   29.83        
May 14 18:53 S 14 10 Mostly Clear FEW250 56 49     77%     29.82 29.82      
May 14 12:53 S 14 10 Mostly Clear FEW030 61 48     62%     29.89 29.89      
May 14 07:53 SSW 10 10 Cloudy OVC011 49 44     83% 45   30 30      
May 13 20:53 S 9 10 Mostly Clear FEW250 49 45     86% 45   30.08 30.08      
May 13 13:53 SSE 10 10 Mostly Clear FEW060 67 28     23%     30.12 30.11      
May 13 05:31 Calm 0.25 Fog VV001 36 36     100%     30.17        
May 12 19:53 S 9 10 Mostly Cloudy FEW050 BKN250 50 30     46% 46   30.1 30.1      
May 12 01:53 S 3 10 Clear CLR 40 23     50% 38   30.16 30.16      
Jun 11 12:53 SSW 15 10 Mostly Cloudy SCT150 BKN250 87 59     39%   86 29.75 29.74      
Jun 10 22:53 SSW 6 10 Clear   58 51     78%     29.92 29.91      
Jun 10 20:53 S 7 10 Mostly Cloudy FEW060 BKN250 61 51     70%     29.94 29.93      
Jun 10 17:53   10 Partly Cloudy FEW060 SCT250 68 48     49%     29.91 29.9      
Jun 09 21:53 W 7 10 Mostly Cloudy BKN120 57 55     93%     29.63 29.62      
Jun 09 17:59 3 10 Thunderstorms and Rain FEW055 SCT070 OVC090 55 53     93%     29.51   0    
Jun 09 17:53 6 10 Light Rain SCT070 OVC090 55 53     93%     29.51 29.5 0    
Jun 08 18:53   10 Mostly Cloudy BKN250 68 43     40%     29.89 29.88      
Jun 08 16:53   10 Mostly Cloudy SCT150 BKN250 76 50     40%   75 29.87 29.87      
Jun 06 08:45   10 Mostly Cloudy SCT015 BKN080 BKN150 50 41     71%     29.98        
Jun 05 18:53 SSE 6 10 Cloudy FEW060 OVC100 57 48     72%     29.99 29.99